Salem, OR

12:38 AM PDT on May 25, 2017 (GMT -0700)
McNary

Weather History for KSLE - February, 2013

Change the Weather History Date:

Monday, February 25, 2013

  Actual Average Record
Temperature  
Mean Temperature 42 °F 44 °F  
Max Temperature 50 °F 53 °F 71 °F (1991)
Min Temperature 33 °F 35 °F 12 °F (1962)
Degree Days  
Heating Degree Days 23 21  
Month to date heating degree days 538 552  
Since 1 July heating degree days 3005 3179  
Cooling Degree Days 0 0  
Month to date cooling degree days 0 0  
Year to date cooling degree days 0 0  
Moisture  
Dew Point 38 °F    
Average Humidity 81    
Maximum Humidity 100    
Minimum Humidity 61    
Precipitation  
Precipitation 0.20 in 0.16 in 0.87 in (1957)
Month to date precipitation 1.36 4.10  
Year to date precipitation 2.99 10.06  
Snow  
Snow 0.00 in - - ()
Month to date snowfall 0.0  
Snow Depth 0.00 in    
Sea Level Pressure  
Sea Level Pressure 30.26 in    
Wind  
Wind Speed 8 mph (SSW)    
Max Wind Speed 24 mph    
Max Gust Speed 32 mph    
Visibility 10 miles    
Events Rain    
T = Trace of Precipitation, MM = Missing Value Source: NWS Daily Summary

Daily Weather History Graph

Daily Weather History Graph

Search for Another Location

Airport or City:

Trip Planner

Search our weather history database for the weather conditions in past years. The results will help you decide how hot, cold, wet, or windy it might be!

Date:

Astronomy

Feb. 25, 2013 Rise Set
Actual Time 6:56 AM PST 5:54 PM PST
Civil Twilight 6:26 AM PST 6:24 PM PST
Nautical Twilight 5:52 AM PST 6:58 PM PST
Astronomical Twilight 5:18 AM PST 7:32 PM PST
Moon 6:16 PM PST 6:27 AM PST
Length of Visible Light 11h 57m
Length of Day
10h 58m
Full, 100% of the Moon is Illuminated
Feb 25
Full
Feb 25
Full
Mar 4
Last Quarter
Mar 11
New
Mar 19
First Quarter

Hourly Weather History & Observations

Time (PST) Temp. Windchill Dew Point Humidity Pressure Visibility Wind Dir Wind Speed Gust Speed Precip Events Conditions
12:56 AM 44.1 °F 35.9 °F 37.9 °F 79% 30.06 in 10.0 mi South 19.6 mph 26.5 mph 0.01 in Rain Light Rain
1:56 AM 43.0 °F 34.8 °F 39.0 °F 86% 30.06 in 10.0 mi South 18.4 mph - 0.04 in Rain Light Rain
2:51 AM 42.8 °F 41.1 °F 41.0 °F 93% 30.10 in 6.0 mi SW 3.5 mph - 0.09 in Rain Light Rain
2:56 AM 43.0 °F 38.8 °F 41.0 °F 93% 30.10 in 5.0 mi SW 6.9 mph - 0.09 in Rain Light Rain
3:13 AM 42.8 °F 39.3 °F 41.0 °F 93% 30.10 in 10.0 mi South 5.8 mph - 0.02 in Rain Light Rain
3:56 AM 42.1 °F 40.2 °F 41.0 °F 96% 30.15 in 10.0 mi SE 3.5 mph - 0.02 in   Overcast
4:56 AM 43.0 °F 39.5 °F 39.9 °F 89% 30.17 in 9.0 mi South 5.8 mph - 0.00 in Rain Light Rain
5:56 AM 42.1 °F 37.1 °F 39.9 °F 92% 30.19 in 10.0 mi South 8.1 mph - 0.02 in   Overcast
6:56 AM 41.0 °F 35.8 °F 39.0 °F 93% 30.22 in 10.0 mi South 8.1 mph - 0.00 in   Overcast
7:56 AM 42.1 °F 37.1 °F 37.9 °F 85% 30.24 in 10.0 mi SSW 8.1 mph - N/A   Mostly Cloudy
8:56 AM 43.0 °F 40.3 °F 39.0 °F 86% 30.26 in 10.0 mi SW 4.6 mph - 0.01 in Rain Light Rain
9:56 AM 45.0 °F 40.6 °F 39.0 °F 80% 30.27 in 10.0 mi South 8.1 mph - 0.00 in   Partly Cloudy
10:56 AM 46.0 °F 41.0 °F 39.0 °F 76% 30.29 in 10.0 mi SW 10.4 mph - 0.00 in   Scattered Clouds
11:56 AM 50.0 °F - 37.9 °F 63% 30.28 in 10.0 mi WSW 10.4 mph 18.4 mph N/A   Mostly Cloudy
12:56 PM 46.0 °F 41.4 °F 37.9 °F 73% 30.29 in 10.0 mi West 9.2 mph 20.7 mph 0.00 in Rain Light Rain
1:56 PM 45.0 °F 38.5 °F 37.9 °F 76% 30.30 in 10.0 mi WSW 13.8 mph - 0.00 in Rain Light Rain
2:03 PM 46.4 °F 40.4 °F 37.4 °F 71% 30.29 in 10.0 mi WSW 13.8 mph - 0.00 in Rain Light Rain
2:56 PM 48.0 °F - 30.9 °F 52% 30.29 in 10.0 mi WSW 10.4 mph - 0.00 in   Mostly Cloudy
3:56 PM 44.1 °F 38.1 °F 37.0 °F 76% 30.32 in 10.0 mi WSW 11.5 mph - 0.01 in   Mostly Cloudy
4:56 PM 44.1 °F 40.1 °F 37.0 °F 76% 30.33 in 10.0 mi WSW 6.9 mph - N/A   Mostly Cloudy
5:56 PM 42.1 °F 35.2 °F 36.0 °F 79% 30.34 in 10.0 mi West 12.7 mph - 0.00 in Rain Light Rain
6:56 PM 37.9 °F 33.5 °F 35.1 °F 89% 30.36 in 10.0 mi SSW 5.8 mph - 0.00 in   Mostly Cloudy
7:56 PM 37.9 °F 33.5 °F 35.1 °F 89% 30.37 in 10.0 mi SSE 5.8 mph - N/A   Mostly Cloudy
8:56 PM 35.1 °F 30.1 °F 34.0 °F 96% 30.38 in 10.0 mi SSE 5.8 mph - N/A   Clear
9:56 PM 36.0 °F 32.1 °F 35.1 °F 97% 30.39 in 10.0 mi South 4.6 mph - N/A   Clear
10:56 PM 36.0 °F 32.1 °F 34.0 °F 93% 30.39 in 10.0 mi SSE 4.6 mph - N/A   Clear
11:56 PM 35.1 °F - 33.1 °F 92% 30.41 in 10.0 mi Calm Calm - N/A   Scattered Clouds